Tracking 19242 objects as of 16-Aug-2018
HD Live streaming from Space Station
objects crossing your sky now

FENGYUN 1C DEB

Track FENGYUN 1C DEB now!
10-day predictions


NORAD ID: 29875
Int'l Code: 1999-025FV
Perigee: 759.0 km
Apogee: 877.0 km
Inclination: 98.7 °
Period: 101.1 minutes
Semi major axis: 7189 km
RCS: 0.0547 m2 (small)
Launch date: May 10, 1999
Source: People's Republic of China (PRC)
Launch site: Taiyaun Space Center, China (TSC)

Note: This is SATELLITE DEBRIS
aabbcc
Your satellite tracking list
Your tracking list is empty




NASA's NSSDC Master Catalog

Two Line Element Set (TLE):
1 29875U 99025FV  18226.81453598 -.00000017  00000-0  11443-4 0  9994
2 29875  98.6669 310.2454 0082079 306.5750 181.5410 14.24286502602224
Source of the keplerian elements: AFSPC